This is the latest recevied weather packets stored in our database for station/object K9JVA. If no packets are shown the sender has not sent any weather packets the latest 10 day(s).
| Time | Temp. | Humidity | Pressure | Rain* | Wind** | Luminosity | Snow |
|---|---|---|---|---|---|---|---|
| 1777556557 | 10.56° C | 72% | 1016.8 hPa | 0 mm | - | - | - |
| 1777555957 | 10.56° C | 73% | 1016.7 hPa | 0 mm | - | - | - |
| 1777555945 | 10° C | 73% | 1016.6 hPa | 0 mm | - | - | - |
| 1777555435 | 10° C | 73% | 1016.5 hPa | 0 mm | - | - | - |
| 1777554097 | 10° C | 73% | 1016.1 hPa | 0 mm | - | - | - |
| 1777552733 | 9.44° C | 75% | 1015.9 hPa | 0 mm | - | - | - |
| 1777551780 | 8.33° C | 79% | 1015.7 hPa | 0 mm | - | - | - |
| 1777551187 | 7.22° C | 81% | 1015.7 hPa | 0 mm | - | - | - |
| 1777548279 | 6.11° C | 85% | 1015.1 hPa | 0 mm | - | - | - |
| 1777547079 | 5.56° C | 85% | 1014.9 hPa | 0 mm | - | - | - |
| 1777546919 | 5.56° C | 85% | 1014.9 hPa | 0 mm | - | - | - |
| 1777545820 | 5.56° C | 85% | 1014.8 hPa | 0 mm | - | - | - |
| 1777544320 | 5.56° C | 86% | 1014.7 hPa | 0 mm | - | - | - |
| 1777540301 | 5.56° C | 84% | 1014.3 hPa | 0 mm | - | - | - |
| 1777540289 | 6.11° C | 85% | 1014.4 hPa | 0 mm | - | - | - |
| 1777539701 | 6.11° C | 85% | 1014.4 hPa | 0 mm | - | - | - |
| 1777537243 | 6.11° C | 85% | 1014.4 hPa | 0 mm | - | - | - |
| 1777536283 | 6.11° C | 85% | 1014.4 hPa | 0 mm | - | - | - |
| 1777535683 | 6.11° C | 86% | 1014.5 hPa | 0 mm | - | - | - |
| 1777535086 | 6.11° C | 87% | 1014.5 hPa | 0 mm | - | - | - |
| 1777529566 | 7.78° C | 81% | 1014.8 hPa | 0 mm | - | - | - |
| 1777528365 | 7.78° C | 80% | 1014.9 hPa | 0 mm | - | - | - |
| 1777524948 | 9.44° C | 78% | 1014.8 hPa | 0 mm | - | - | - |
| 1777524646 | 9.44° C | 77% | 1014.8 hPa | 0 mm | - | - | - |
| 1777522789 | 10° C | 75% | 1014.5 hPa | 0 mm | - | - | - |
* Rain since midnight (hover to see other rain measurements)
** Current wind speed in m/s (hover to see current wind gust speed)